Marion Regional, IL

4:42 AM CST on February 19, 2018 (GMT -0600)
Williamson County Regional

Weather History for KMWA - December, 2012

Change the Weather History Date:

Friday, December 7, 2012

  Actual Average Record
Temperature  
Mean Temperature 58 °F -  
Max Temperature 64 °F 41 °F 68 °F (1980)
Min Temperature 53 °F 25 °F 4 °F (1977)
Degree Days  
Heating Degree Days 6    
Growing Degree Days 8 (Base 50)    
Moisture  
Dew Point 54 °F    
Average Humidity 93    
Maximum Humidity 100    
Minimum Humidity 64    
Precipitation  
Precipitation 0.00 in - - ()
Sea Level Pressure  
Sea Level Pressure 29.90 in    
Wind  
Wind Speed 2 mph (South)    
Max Wind Speed 12 mph    
Max Gust Speed -    
Visibility 6 miles    
Events Fog , Rain    
Averages and records for this station are not official NWS values.
T = Trace of Precipitation, MM = Missing Value Source: NWS Daily Summary

Daily Weather History Graph

Daily Weather History Graph

Search for Another Location

Airport or City:

Trip Planner

Search our weather history database for the weather conditions in past years. The results will help you decide how hot, cold, wet, or windy it might be!

Date:

Astronomy

Dec. 07, 2012 Rise Set
Actual Time 6:58 AM CST 4:37 PM CST
Civil Twilight 6:29 AM CST 5:06 PM CST
Nautical Twilight 5:56 AM CST 5:38 PM CST
Astronomical Twilight 5:24 AM CST 6:10 PM CST
Moon 12:23 AM CST (12/7) 12:28 PM CST (12/7)
Length of Visible Light 10h 36m
Length of Day
9h 38m
Last Quarter, 38% of the Moon is Illuminated
Dec 7
Last Quarter
Dec 13
New
Dec 19
First Quarter
Dec 28
Full
Jan 4
Last Quarter

Hourly Weather History & Observations

Time (CST) Temp. Dew Point Humidity Pressure Visibility Wind Dir Wind Speed Gust Speed Precip Events Conditions
12:15 AM 53.6 °F 51.8 °F 94% 29.97 in 5.0 mi SE 3.5 mph - N/A   Overcast
12:35 AM 53.6 °F 51.8 °F 94% 29.96 in 4.0 mi Calm Calm - N/A   Overcast
12:55 AM 53.6 °F 51.8 °F 94% 29.95 in 3.0 mi Calm Calm - N/A   Overcast
1:15 AM 53.6 °F 51.8 °F 94% 29.95 in 3.0 mi Calm Calm - N/A   Overcast
1:35 AM 53.6 °F 51.8 °F 94% 29.95 in 1.8 mi Calm Calm - N/A   Overcast
1:55 AM 53.6 °F 51.8 °F 94% 29.94 in 0.5 mi Calm Calm - N/A Fog Fog
2:15 AM 53.6 °F 51.8 °F 94% 29.95 in 0.2 mi Calm Calm - N/A Fog Fog
2:35 AM 53.6 °F 51.8 °F 94% 29.94 in 0.2 mi Calm Calm - N/A Fog Fog
2:55 AM 53.6 °F 51.8 °F 94% 29.94 in 0.2 mi Calm Calm - N/A Fog Fog
3:15 AM 53.6 °F 51.8 °F 94% 29.93 in 0.2 mi Calm Calm - N/A Fog Fog
3:35 AM 53.6 °F 53.6 °F 100% 29.93 in 0.2 mi Calm Calm - N/A Fog Fog
3:55 AM 53.6 °F 53.6 °F 100% 29.92 in 0.2 mi Calm Calm - N/A Fog Fog
4:15 AM 53.6 °F 53.6 °F 100% 29.92 in 0.2 mi Calm Calm - N/A Fog Fog
4:35 AM 53.6 °F 53.6 °F 100% 29.92 in 0.2 mi Calm Calm - N/A Fog Fog
4:55 AM 53.6 °F 53.6 °F 100% 29.92 in 0.2 mi Calm Calm - N/A Fog Fog
5:15 AM 53.6 °F 53.6 °F 100% 29.92 in 0.2 mi Calm Calm - N/A Rain Light Rain
5:35 AM 53.6 °F 53.6 °F 100% 29.91 in 0.8 mi Calm Calm - N/A   Mist
6:53 AM 53.6 °F 53.6 °F 100% 29.92 in 0.1 mi Calm Calm - N/A Fog Fog
7:54 AM 55.4 °F 55.4 °F 100% 29.92 in 0.1 mi Calm Calm - N/A Fog Fog
8:29 AM 55.4 °F 55.4 °F 100% 29.91 in 0.5 mi Calm Calm - N/A Fog Fog
8:53 AM 55.4 °F 55.4 °F 100% 29.92 in 1.0 mi Calm Calm - N/A   Overcast
9:52 AM 57.2 °F 57.2 °F 100% 29.91 in 3.0 mi South 8.1 mph - N/A   Overcast
10:24 AM 57.2 °F 57.2 °F 100% 29.91 in 5.0 mi South 9.2 mph - N/A   Overcast
10:53 AM 57.2 °F 57.2 °F 100% 29.89 in 7.0 mi South 8.1 mph - N/A   Overcast
11:55 AM 60.8 °F 60.8 °F 100% 29.86 in 10.0 mi South 11.5 mph - N/A   Overcast
12:55 PM 62.6 °F 55.4 °F 77% 29.86 in 10.0 mi SW 11.5 mph - N/A   Overcast
1:55 PM 62.6 °F 51.8 °F 68% 29.83 in 10.0 mi SSW 11.5 mph - N/A   Overcast
2:55 PM 64.4 °F 51.8 °F 64% 29.83 in 10.0 mi SW 11.5 mph - N/A   Mostly Cloudy
3:55 PM 60.8 °F 51.8 °F 72% 29.84 in 10.0 mi SSW 5.8 mph - N/A   Scattered Clouds
4:55 PM 57.2 °F 51.8 °F 82% 29.85 in 10.0 mi South 5.8 mph - N/A   Overcast
6:55 PM 55.4 °F 51.8 °F 88% 29.87 in 10.0 mi South 3.5 mph - N/A   Overcast
7:15 PM 57.2 °F 51.8 °F 82% 29.87 in 10.0 mi Calm Calm - N/A   Overcast
7:35 PM 55.4 °F 53.6 °F 94% 29.87 in 10.0 mi South 4.6 mph - N/A   Overcast
7:55 PM 55.4 °F 53.6 °F 94% 29.87 in 10.0 mi South 5.8 mph - N/A   Overcast
8:15 PM 55.4 °F 53.6 °F 94% 29.87 in 10.0 mi South 3.5 mph - N/A   Overcast
8:35 PM 57.2 °F 53.6 °F 88% 29.88 in 10.0 mi South 3.5 mph - N/A   Overcast
8:55 PM 55.4 °F 53.6 °F 94% 29.88 in 10.0 mi Calm Calm - N/A   Overcast
9:15 PM 55.4 °F 53.6 °F 94% 29.88 in 10.0 mi Calm Calm - N/A   Overcast
9:35 PM 55.4 °F 53.6 °F 94% 29.87 in 10.0 mi South 3.5 mph - N/A   Overcast
9:55 PM 55.4 °F 53.6 °F 94% 29.87 in 10.0 mi Calm Calm - N/A   Overcast
10:15 PM 55.4 °F 53.6 °F 94% 29.87 in 10.0 mi South 4.6 mph - N/A   Overcast
10:35 PM 55.4 °F 53.6 °F 94% 29.87 in 10.0 mi South 5.8 mph - N/A   Overcast
10:55 PM 55.4 °F 53.6 °F 94% 29.87 in 10.0 mi SSW 3.5 mph - N/A   Overcast
11:15 PM 55.4 °F 53.6 °F 94% 29.87 in 10.0 mi Calm Calm - N/A   Overcast
11:35 PM 55.4 °F 53.6 °F 94% 29.87 in 10.0 mi Calm Calm - N/A   Overcast
11:55 PM 57.2 °F 53.6 °F 88% 29.87 in 10.0 mi Calm Calm - N/A   Overcast